Location: Newark
(25.6108°S, 54.5803°W)
Time: 17:16:54
(UTC+00:00)

Courier 1B Rocket - Pass Details

Date: 31 October 2020
Orbit: 920 x 1202 km, 28.2° (Epoch: 22 November)

Event Time Altitude Azimuth Distance (km) Brightness Sun altitude
Rises 15:57:42 0° 272° (W) 3,615 8.1 76.0°
Reaches altitude 10° 16:01:30 10° 294° (WNW) 2,633 7.6 75.5°
Maximum altitude 16:05:03 15° 328° (NNW) 2,236 7.4 74.9°
Drops below altitude 10° 16:08:33 10° 3° (N) 2,599 7.5 74.3°
Sets 16:12:18 0° 25° (NNE) 3,544 8.0 73.7°
